Time,TemperatureF,DewpointF,PressureIn,WindDirection,WindDirectionDegrees,WindSpeedMPH,WindSpeedGustMPH,Humidity,HourlyPrecipIn,Conditions,Clouds,dailyrainin,SoftwareType,DateUTC
2013-08-01 00:33:00,60.0,60.0,-100.00,North,355,0.0,0.0,99,-99.99,,,-99.99,,2013-08-01 05:33:00,
2013-08-01 00:43:00,60.0,60.0,-100.00,North,355,0.0,0.0,99,-99.99,,,-99.99,,2013-08-01 05:43:00,
2013-08-01 00:52:00,60.0,60.0,-100.00,North,355,0.0,0.0,99,-99.99,,,-99.99,,2013-08-01 05:52:00,
2013-08-01 00:53:00,60.0,60.0,-100.00,North,355,0.0,0.0,99,-99.99,,,-99.99,,2013-08-01 05:53:00,
2013-08-01 01:12:00,60.0,60.0,-100.00,North,355,0.0,0.0,99,-99.99,,,-99.99,,2013-08-01 06:12:00,
2013-08-01 01:23:00,60.0,60.0,-100.00,North,355,0.0,0.0,99,-99.99,,,-99.99,,2013-08-01 06:23:00,
2013-08-01 01:33:00,60.0,60.0,-100.00,North,355,0.0,0.0,99,-99.99,,,-99.99,,2013-08-01 06:33:00,
2013-08-01 01:42:00,60.0,60.0,-100.00,North,355,0.0,0.0,99,-99.99,,,-99.99,,2013-08-01 06:42:00,
2013-08-01 02:12:00,59.0,59.0,-100.00,North,355,0.0,0.0,99,-99.99,,,-99.99,,2013-08-01 07:12:00,
2013-08-01 02:23:00,59.0,59.0,-100.00,North,355,0.0,0.0,99,-99.99,,,-99.99,,2013-08-01 07:23:00,
2013-08-01 02:32:00,59.0,59.0,-100.00,North,355,0.0,0.0,99,-99.99,,,-99.99,,2013-08-01 07:32:00,
2013-08-01 02:43:00,59.0,59.0,-100.00,North,355,0.0,0.0,99,-99.99,,,-99.99,,2013-08-01 07:43:00,
2013-08-01 02:53:00,59.0,59.0,-100.00,North,355,0.0,0.0,99,-99.99,,,-99.99,,2013-08-01 07:53:00,
2013-08-01 03:16:00,60.0,60.0,-100.00,North,355,0.0,0.0,99,-99.99,,,-99.99,,2013-08-01 08:16:00,
2013-08-01 03:26:00,60.0,60.0,-100.00,North,355,0.0,0.0,99,-99.99,,,-99.99,,2013-08-01 08:26:00,
2013-08-01 03:38:00,60.0,60.0,-100.00,North,355,0.0,0.0,99,-99.99,,,-99.99,,2013-08-01 08:38:00,
2013-08-01 03:45:00,60.0,60.0,-100.00,North,355,0.0,0.0,99,-99.99,,,-99.99,,2013-08-01 08:45:00,
2013-08-01 04:54:00,60.0,60.0,-100.00,North,355,0.0,0.0,99,-99.99,,,-99.99,,2013-08-01 09:54:00,
2013-08-01 05:22:00,61.0,61.0,-100.00,North,355,0.0,0.0,99,-99.99,,,-99.99,,2013-08-01 10:22:00,
2013-08-01 05:53:00,60.0,60.0,-100.00,North,355,0.0,0.0,99,-99.99,,,-99.99,,2013-08-01 10:53:00,
2013-08-01 05:55:00,60.0,59.0,-100.00,North,355,0.0,0.0,99,-99.99,,,-99.99,,2013-08-01 10:55:00,
2013-08-01 06:43:00,60.0,59.0,-100.00,North,355,0.0,0.0,99,-99.99,,,-99.99,,2013-08-01 11:43:00,
2013-08-01 06:48:00,60.0,59.0,-100.00,North,355,0.0,0.0,99,-99.99,,,-99.99,,2013-08-01 11:48:00,
2013-08-01 07:55:00,66.0,65.0,-100.00,North,355,0.0,0.0,99,-99.99,,,-99.99,,2013-08-01 12:55:00,
2013-08-01 08:50:00,66.0,65.0,-100.00,North,355,0.0,0.0,99,-99.99,,,-99.99,,2013-08-01 13:50:00,
2013-08-01 11:54:00,73.0,63.0,-100.00,North,355,0.0,0.0,72,-99.99,,,-99.99,,2013-08-01 16:54:00,
2013-08-01 12:20:00,73.0,63.0,-100.00,North,355,0.0,0.0,72,-99.99,,,-99.99,,2013-08-01 17:20:00,
2013-08-01 12:33:00,73.0,63.0,-100.00,North,355,0.0,0.0,72,-99.99,,,-99.99,,2013-08-01 17:33:00,
2013-08-01 12:52:00,73.0,63.0,-100.00,North,355,0.0,0.0,72,-99.99,,,-99.99,,2013-08-01 17:52:00,
2013-08-01 14:40:00,78.0,60.0,-100.00,North,355,0.0,0.0,54,-99.99,,,-99.99,,2013-08-01 19:40:00,
2013-08-01 14:54:00,78.0,58.0,-100.00,North,355,0.0,0.0,51,-99.99,,,-99.99,,2013-08-01 19:54:00,
2013-08-01 15:19:00,77.0,58.0,-100.00,North,-999,-999.0,-999.0,52,-99.99,,,-99.99,,2013-08-01 20:19:00,
2013-08-01 16:14:00,78.0,57.0,-100.00,North,355,0.0,0.0,49,-99.99,,,-99.99,,2013-08-01 21:14:00,
2013-08-01 16:34:00,78.0,57.0,-100.00,North,355,0.0,0.0,49,-99.99,,,-99.99,,2013-08-01 21:34:00,
2013-08-01 16:43:00,78.0,57.0,-100.00,North,355,0.0,0.0,49,-99.99,,,-99.99,,2013-08-01 21:43:00,
2013-08-01 16:53:00,78.0,57.0,-100.00,North,355,0.0,0.0,49,-99.99,,,-99.99,,2013-08-01 21:53:00,
2013-08-01 16:54:00,80.0,58.0,-100.00,North,355,0.0,0.0,47,-99.99,,,-99.99,,2013-08-01 21:54:00,
2013-08-01 17:17:00,79.0,58.0,-100.00,North,355,0.0,0.0,49,-99.99,,,-99.99,,2013-08-01 22:17:00,
2013-08-01 17:35:00,80.0,58.0,-100.00,North,355,0.0,0.0,47,-99.99,,,-99.99,,2013-08-01 22:35:00,
2013-08-01 17:46:00,80.0,58.0,-100.00,North,355,0.0,0.0,47,-99.99,,,-99.99,,2013-08-01 22:46:00,
2013-08-01 17:54:00,78.0,59.0,-100.00,North,355,0.0,0.0,52,-99.99,,,-99.99,,2013-08-01 22:54:00,
2013-08-01 18:17:00,78.0,59.0,-100.00,North,355,0.0,0.0,52,-99.99,,,-99.99,,2013-08-01 23:17:00,
2013-08-01 18:25:00,78.0,59.0,-100.00,North,355,0.0,0.0,52,-99.99,,,-99.99,,2013-08-01 23:25:00,
2013-08-01 18:33:00,78.0,59.0,-100.00,North,355,0.0,0.0,52,-99.99,,,-99.99,,2013-08-01 23:33:00,
2013-08-01 18:54:00,77.0,59.0,-100.00,North,355,0.0,0.0,54,-99.99,,,-99.99,,2013-08-01 23:54:00,
2013-08-01 19:18:00,77.0,59.0,-100.00,North,355,0.0,0.0,53,-99.99,,,-99.99,,2013-08-02 00:18:00,
2013-08-01 19:37:00,77.0,59.0,-100.00,North,355,0.0,0.0,54,-99.99,,,-99.99,,2013-08-02 00:37:00,
2013-08-01 19:54:00,74.0,60.0,-100.00,North,355,0.0,0.0,61,-99.99,,,-99.99,,2013-08-02 00:54:00,
2013-08-01 20:16:00,76.0,59.0,-100.00,North,355,0.0,0.0,57,-99.99,,,-99.99,,2013-08-02 01:16:00,
2013-08-01 20:38:00,74.0,60.0,-100.00,North,355,0.0,0.0,61,-99.99,,,-99.99,,2013-08-02 01:38:00,
2013-08-01 21:17:00,73.0,61.0,-100.00,North,355,0.0,0.0,65,-99.99,,,-99.99,,2013-08-02 02:17:00,
2013-08-01 21:35:00,72.0,62.0,-100.00,North,355,0.0,0.0,71,-99.99,,,-99.99,,2013-08-02 02:35:00,
2013-08-01 21:45:00,72.0,62.0,-100.00,North,355,0.0,0.0,71,-99.99,,,-99.99,,2013-08-02 02:45:00,
2013-08-01 21:52:00,72.0,62.0,-100.00,North,355,0.0,0.0,71,-99.99,,,-99.99,,2013-08-02 02:52:00,